Location: Joplin
(37.0842°N, 94.5131°W)
Time: 21:18:53
(UTC-05:00)

Envisat - Pass Details

Date: 05 October 2021
Orbit: 764 x 766 km, 98.2° (Epoch: 23 October)

Event Time Altitude Azimuth Distance (km) Brightness Sun altitude
Rises 06:07:36 0° 16° (NNE) 3,235 6.5 -14.7°
Reaches altitude 10° 06:09:57 10° 21° (NNE) 2,305 5.8 -14.2°
Maximum altitude 06:14:58 59° 101° (E) 878 3.6 -13.2°
Drops below altitude 10° 06:19:57 10° 180° (S) 2,290 5.4 -12.2°
Sets 06:22:16 0° 184° (S) 3,212 6.2 -11.8°
